THURAYA-3

Last updated on Sun Apr 12 2026 00:02:51 GMT+0000 (Coordinated Universal Time)

1 32404U 08001A 26101.32623623 -.00000297 00000+0 00000+0 0 9996 2 32404 5.8775 35.6734 0002247 348.7194 31.1176 1.00272119 66820
UTC large
Height (km)
Speed (km/s)
/
Latitude / Longitude
Inclination (degrees)
Orbital Period (minutes)
Azimuth
Elevation
Range (km)
Doppler Factor

Next 0 passes for location: London (51.5072 / 0.1276)

Sorry there are no passes over London.
THURAYA-3